{"data":{"norad_id":66246,"epoch":"2026-09-20T05:55:26.494752Z","epoch_age_seconds":118541,"freshness":"FRESH","line1":"1 66246U 25245N   26263.24683443  .00006393  00000+0  21754-3 0  9997","line2":"2 66246  53.1563  98.8080 0001538  87.8708 272.2470 15.31709691 50851","mean_motion":15.31709691,"eccentricity":0.0001538,"inclination_deg":53.1563,"raan_deg":98.808,"arg_perigee_deg":87.8708,"mean_anomaly_deg":272.247,"bstar":0.00021754,"rev_number":5085,"period_min":94.012593147457,"perigee_km":469.65775417238,"apogee_km":471.7644598501,"semimajor_km":6848.8481070112,"source":"CELESTRAK","updated_at":"2026-09-21T09:00:35.848263Z"}}